Wilkerson Pass, CO

11:40 AM MDT on May 26, 2017 (GMT -0600)
Wilkerson Pass

Weather History for K4BM - May, 2014

Change the Weather History Date:

Tuesday, May 13, 2014

  Actual Average (KAFF) Record (KAFF)
Temperature  
Mean Temperature 18 °F -  
Max Temperature 23 °F 64 °F 79 °F (2017)
Min Temperature 14 °F 38 °F 24 °F (2014)
Degree Days  
Heating Degree Days 46    
Moisture  
Dew Point 17 °F    
Average Humidity 92    
Maximum Humidity 93    
Minimum Humidity 86    
Precipitation  
Precipitation 0.00 in - - ()
Sea Level Pressure  
Sea Level Pressure 30.41 in    
Wind  
Wind Speed 7 mph (NE)    
Max Wind Speed 14 mph    
Max Gust Speed 21 mph    
Visibility 4 miles    
Events Snow    
Averages and records for this station are not official NWS values.
T = Trace of Precipitation, MM = Missing Value Source: NWS Daily Summary

Daily Weather History Graph

Daily Weather History Graph

Search for Another Location

Airport or City:

Trip Planner

Search our weather history database for the weather conditions in past years. The results will help you decide how hot, cold, wet, or windy it might be!

Date:

Astronomy

May. 13, 2014 Rise Set
Actual Time 5:50 AM MDT 8:06 PM MDT
Civil Twilight 5:21 AM MDT 8:36 PM MDT
Nautical Twilight 4:44 AM MDT 9:13 PM MDT
Astronomical Twilight 4:04 AM MDT 9:53 PM MDT
Moon 7:11 PM MDT (5/13) 5:08 AM MDT (5/13)
Length of Visible Light 15h 15m
Length of Day
14h 15m
Waxing Gibbous, 99% of the Moon is Illuminated
May 13
Waxing Gibbous
May 14
Full
May 21
Last Quarter
May 28
New
Jun 5
First Quarter

Hourly Weather History & Observations

Time (MDT) Temp. Windchill Dew Point Humidity Pressure Visibility Wind Dir Wind Speed Gust Speed Precip Events Conditions
12:14 AM - - - N/A% 30.33 in - ENE 10.4 mph 16.1 mph N/A   Overcast
12:34 AM - - - N/A% 30.33 in - ENE 10.4 mph 17.3 mph N/A   Overcast
12:54 AM - - - N/A% 30.33 in - ENE 11.5 mph 20.7 mph N/A   Overcast
1:34 AM - - - N/A% 30.32 in - ENE 11.5 mph 19.6 mph N/A   Overcast
1:54 AM - - - N/A% 30.32 in - NE 10.4 mph 18.4 mph N/A   Overcast
2:14 AM - - - N/A% 30.31 in - NE 12.7 mph 18.4 mph N/A   Overcast
2:33 AM - - - N/A% 30.31 in - NE 12.7 mph 17.3 mph N/A   Overcast
2:54 AM - - - N/A% 30.31 in - NE 13.8 mph 19.6 mph N/A   Overcast
3:14 AM - - - N/A% 30.31 in - NE 13.8 mph 18.4 mph N/A   Mostly Cloudy
3:33 AM - - - N/A% 30.31 in - NE 12.7 mph 19.6 mph N/A   Unknown
3:53 AM - - - N/A% 30.31 in - NE 13.8 mph - N/A   Unknown
4:14 AM - - - N/A% 30.31 in - NE 13.8 mph - N/A   Mostly Cloudy
4:34 AM - - - N/A% 30.31 in - NE 13.8 mph - N/A   Overcast
4:53 AM - - - N/A% 30.32 in - NE 11.5 mph 18.4 mph N/A   Unknown
5:14 AM - - - N/A% 30.32 in - NE 9.2 mph - N/A   Mostly Cloudy
5:34 AM - - - N/A% 30.33 in - NNE 6.9 mph - N/A   Unknown
5:54 AM - - - N/A% 30.33 in - NNE 3.5 mph - N/A   Unknown
6:13 AM - - - N/A% 30.34 in - NNE 4.6 mph - N/A   Unknown
7:14 AM - - - N/A% 30.37 in - Calm Calm - N/A   Unknown
7:34 AM - - - N/A% 30.37 in - Calm Calm - N/A   Unknown
7:54 AM - - - N/A% 30.38 in - NNE 3.5 mph - N/A   Overcast
8:14 AM - - - N/A% 30.38 in - Calm Calm - N/A   Unknown
8:54 AM - - - N/A% 30.40 in - Calm Calm - N/A   Overcast
10:34 AM - - - N/A% 30.42 in - Calm Calm - N/A   Overcast
10:54 AM - - - N/A% 30.42 in 3.0 mi Calm Calm - N/A   Unknown
11:34 AM - - - N/A% 30.42 in 1.5 mi Calm Calm - N/A   Unknown
11:54 AM - - - N/A% 30.43 in 2.0 mi Calm Calm - N/A   Unknown
12:14 PM - - - N/A% 30.43 in 1.8 mi Calm Calm - N/A   Unknown
12:34 PM - - - N/A% 30.43 in 2.5 mi Calm Calm - N/A   Unknown
12:54 PM - - - N/A% 30.43 in 2.5 mi Calm Calm - N/A   Unknown
1:14 PM - - - N/A% 30.44 in 1.2 mi Calm Calm - N/A   Unknown
1:34 PM - - - N/A% 30.44 in 1.5 mi Calm Calm - N/A   Unknown
1:54 PM 19.4 °F - 17.6 °F 93% 30.44 in 3.0 mi Calm Calm - N/A Snow Light Snow
2:14 PM 21.2 °F - 19.4 °F 93% 30.45 in 1.8 mi Calm Calm - N/A Snow Light Snow
2:34 PM 21.2 °F 16.4 °F 19.4 °F 93% 30.44 in 7.0 mi ESE 3.5 mph - N/A Snow Light Snow
2:54 PM 21.2 °F 16.4 °F 19.4 °F 93% 30.44 in 10.0 mi SE 3.5 mph - N/A   Mostly Cloudy
3:13 PM 23.0 °F 18.4 °F 21.2 °F 93% 30.43 in 10.0 mi SE 3.5 mph - N/A   Mostly Cloudy
3:34 PM 21.2 °F 16.4 °F 19.4 °F 93% 30.43 in 10.0 mi SE 3.5 mph - N/A   Overcast
3:54 PM 21.2 °F 16.4 °F 19.4 °F 93% 30.43 in 10.0 mi SE 3.5 mph - N/A   Overcast
4:14 PM 21.2 °F - 19.4 °F 93% 30.44 in 1.0 mi Calm Calm - N/A Snow Light Snow
4:34 PM 21.2 °F - 19.4 °F 93% 30.44 in 0.5 mi Calm Calm - N/A Snow Snow
4:54 PM 21.2 °F - 19.4 °F 93% 30.44 in 3.0 mi Calm Calm - N/A Snow Light Snow
5:14 PM 21.2 °F - 19.4 °F 93% 30.45 in 0.5 mi Calm Calm - N/A Snow Snow
5:34 PM 21.2 °F 16.4 °F 19.4 °F 93% 30.45 in 0.2 mi East 3.5 mph - N/A Snow Snow
5:54 PM 21.2 °F 16.4 °F 17.6 °F 86% 30.45 in 0.8 mi East 3.5 mph - N/A Snow Light Snow
6:14 PM 19.4 °F 10.4 °F 17.6 °F 93% 30.45 in 0.2 mi ENE 6.9 mph - N/A Snow Snow
6:34 PM 19.4 °F 12.8 °F 17.6 °F 93% 30.45 in 0.5 mi NE 4.6 mph - N/A Snow Light Snow
6:53 PM 21.2 °F - 19.4 °F 93% 30.46 in 0.5 mi North - - N/A Snow Light Snow
7:14 PM 19.4 °F - 17.6 °F 93% 30.46 in 0.8 mi North - - N/A Snow Light Snow
7:34 PM 19.4 °F 14.3 °F 17.6 °F 93% 30.47 in 0.5 mi ENE 3.5 mph - N/A Snow Light Snow
7:54 PM 19.4 °F - 17.6 °F 93% 30.47 in 1.8 mi North - - N/A Snow Light Snow
8:14 PM 19.4 °F - 17.6 °F 93% 30.48 in 2.5 mi North - - N/A   Overcast
8:53 PM 17.6 °F 8.2 °F 15.8 °F 93% 30.48 in 2.0 mi NNE 6.9 mph - N/A   Overcast
9:14 PM 17.6 °F 9.3 °F 15.8 °F 93% 30.49 in 5.0 mi NE 5.8 mph - N/A   Overcast
9:33 PM 17.6 °F - 15.8 °F 93% 30.50 in 4.0 mi North - - N/A   Mostly Cloudy
9:54 PM 17.6 °F 10.7 °F 14.0 °F 86% 30.50 in 10.0 mi NNW 4.6 mph - N/A   Mostly Cloudy
10:14 PM - - - N/A% 30.50 in 10.0 mi NNW 4.6 mph - N/A   Mostly Cloudy
10:34 PM - - - N/A% 30.51 in 10.0 mi NNW 4.6 mph - N/A   Overcast
10:54 PM 15.8 °F 7.2 °F 12.2 °F 86% 30.51 in 10.0 mi NNW 5.8 mph - N/A   Overcast
11:14 PM 15.8 °F 7.2 °F 12.2 °F 86% 30.51 in 10.0 mi NNW 5.8 mph - N/A   Overcast
11:34 PM 14.0 °F 6.5 °F 12.2 °F 93% 30.51 in 10.0 mi NNW 4.6 mph - N/A   Mostly Cloudy
11:54 PM 14.0 °F 5.1 °F 12.2 °F 93% 30.51 in 10.0 mi NNW 5.8 mph - N/A   Mostly Cloudy